Back to catalog

KUIPER-00086

AliveCommunicationsLEO
NORAD 64832·PAYLOAD·🇺🇸 United States

Launched Jul 16, 2025 from Cape Canaveral Space Force Station

Loading…

Next Passes (next 24 hours)

TLE

FreshSource: CelesTrak SupGP

Epoch: Sep 14, 2026, 12:35 UTC

1 64832C 25151S   26257.52476852  .00001859  00000+0  24337-3 0  2579
2 64832  51.9000 183.0870 0000963  87.6736 178.3376 14.79918749    17

Track KUIPER-00086 in real time with AllMySat

Download on the App Store